Location: Ahstedt
(52.2048°N, 10.1060°E)
Time: 00:38:40
(UTC+00:00)

IGS 5A - Pass Details

Date: 18 January 2026
Orbit: 551 x 554 km, 97.4° (Epoch: 8 January)

Event Time Altitude Azimuth Distance (km) Brightness Sun altitude
Rises 05:45:47 0° 9° (N) 2,743 6.8 -13.7°
Reaches altitude 10° 05:47:58 10° 5° (N) 1,843 5.9 -13.4°
Maximum altitude 05:51:50 52° 289° (WNW) 696 3.4 -12.8°
Drops below altitude 10° 05:55:41 10° 213° (SSW) 1,829 5.8 -12.3°
Sets 05:57:50 0° 209° (SSW) 2,719 6.8 -12.0°
